COSMOS 2251 DEB

Satellite information

Favourite Embed

Satellite Type and Status

DEBRISIN ORBIT

Key statistics

Satellite COSMOS 2251 DEB at a glance.

Uptime

11710

Days in orbit

Revolutions

≈ 14.9

Per day

Orbit

LEO

Low Earth Orbit

Inclination

74.0

Latest

Satellite identification and parameters

Extended collection of information and parameters for COSMOS 2251 DEB.

Object identification

Identified? True

Debris? True

Object name: COSMOS 2251 DEB

International designator: 1993-036AJC

Object number (NORAD): 35073

Object ID (CCSDS): 35073

Country: COMMONWEALTH OF INDEPENDENT STATES (CIS)

Current information (Y/N): Y

RCS size: SMALL

Orbital parameters

Period: 96.645 minutes

Inclination: 74.0046 deg

SMA: 6976.114 km

Apoapsis: 613.009 km

Periapsis: 582.949 km

RAAN: 301.8975 deg

Eccentricy: 0.0021545

Argument of periapsis: 91.0225 deg

Mean anomaly: 269.3425 deg

Mean motion: 14.89986786 rev/day

Mean motion (dot): 0.00016983 rev/day2

B* drag term: 0.0017532 1/REarth

Two-line elements (TLE)

Creation date: July 1, 2025, 10:16 p.m.

Reference frame: TEME

Reference center: EARTH

Epoch: July 1, 2025, 2:26 p.m. UTC

TLE line 0: 0 COSMOS 2251 DEB

TLE line 1: 1 35073U 93036AJC 25182.60161715 .00016983 00000-0 17532-2 0 9991

TLE line 2: 2 35073 74.0046 301.8975 0021545 91.0225 269.3425 14.89986786858862

Live tracking on map

Real-time ground track for satellite COSMOS 2251 DEB.

In-orbit conjunctions

A list of the most updated potential collisions computed for object COSMOS 2251 DEB.

Target Orbit TCA Probability of collision Miss distance Type
COSMOS 2251 DEB LEO 2024-06-16 05:10:41 0.0002490515 90.0 (m) DEBRIS

Associated space launch

Military communications satellite. Destroyed in a collision with Iridium 33.

COSMOS 2251 DEB was lifted into orbit during the mission ‘Kosmos-3M | Strela-2M 51’, on board a Kosmos-3M space rocket.

The launch took place on June 16, 1993, 4:17 a.m. from 132/1 (132L).

For more information about the launch, click the button.

Launch to space Kosmos-3M | Strela-2M 51
Kosmos-3M | Strela-2M 51

Agency: N/A

Status: Launch Successful

Launch date: June 16, 1993, 4:17 a.m. UTC

Rocket: Kosmos-3M

Launch pad: 132/1 (132L)

Location: Plesetsk Cosmodrome, Russian Federation

...

Latest news about this satellite

There are no fresh news available about this satellite. Check back as we update our databases every day.


Newsletter sign-up

Weekly statistics, charts and insights to help you stay on top of the space industry.